DRAGON CRS-13 (43060 NORAD) Tracking and Keplerian Element Data.

This shows tracking and keplerian element data for the satellite.

Feedback or suggestion? Click here.

Epoch Orbit448
Epoch Day13.43819444
Epoch Year2018
Argument of Perigee135.1181
Mean Anonmoly288.6702
Mean Motion15.56261152
Decay Rate-2.07E-06
L11 43060U 17080A 18013.43819444 -.00000207 00000-0 40301-5 0 9992
L22 43060 51.6410 69.9362 0005652 135.1181 288.6702 15.56261152 4488

Live tracking and technical data element details for DRAGON CRS-13 (NORAD 43060). DRAGON CRS-13 can be tracked NOW for your location showing map with azimuth and elevation plus other details from your city location.

Tracking and technical details about the satellite: track the satellite on the map from your city or location and see movement details for azimuth, elevation, latitude, longitude, range, height, and movement on the map or in text.

Es'hailsat 2 (coming in 2018)

IsCatalogInMostPopularTable: catalog: 43060, numindb: 59
Update: records affected: 1

GetName: 43060 DRAGON CRS-13

Hit Count: updated at: Thu, 22 Mar 2018 13:40:07 GMT